KAL3694 RKSI-ZSQD

Flight info

Callsign KAL3694
Flight time N/A
Altitude 36000
Route NOPIK Y697 AGAVO/K0856S1100 W209 LATUX LAT81A
Aircraft A388/J-SADE2E3FGHIJ3J4J5M1RWXY/LB1D1

Departure

Time N/A
Airport Incheon International Airport (RKSI)

Arrival

Time 2026-05-05 16:03
Airport Qingdao Jiaodong International Airport (ZSQD)
Time Latitude Longitude Altitude Speed Heading
2026-05-05 15:33 37.23424 124.12659 24976 ft 421 kts 240°
2026-05-05 15:33 37.21823 124.09572 25410 ft 424 kts 239°
2026-05-05 15:33 37.20194 124.06534 25849 ft 427 kts 238°
2026-05-05 15:34 37.18507 124.03454 26327 ft 430 kts 236°
2026-05-05 15:34 37.16548 124.00581 26796 ft 436 kts 228°
2026-05-05 15:34 37.08986 123.93561 28318 ft 450 kts 217°
2026-05-05 15:34 36.98423 123.84646 30341 ft 465 kts 217°
2026-05-05 15:35 36.91453 123.78796 31490 ft 473 kts 217°
2026-05-05 15:35 36.85938 123.74179 32333 ft 480 kts 217°
2026-05-05 15:35 36.80335 123.69497 33196 ft 487 kts 217°
2026-05-05 15:35 36.74647 123.64754 33959 ft 496 kts 217°
2026-05-05 15:36 36.68883 123.59956 34769 ft 500 kts 217°
2026-05-05 15:36 36.63123 123.55127 35840 ft 497 kts 217°
2026-05-05 15:36 36.57386 123.50274 36107 ft 495 kts 217°
2026-05-05 15:37 36.45930 123.40609 36098 ft 497 kts 220°
2026-05-05 15:37 36.41077 123.34615 36095 ft 489 kts 237°
2026-05-05 15:37 36.37882 123.27282 36105 ft 481 kts 250°
2026-05-05 15:38 36.32652 123.12116 36094 ft 481 kts 250°
2026-05-05 15:38 36.27339 122.96857 36090 ft 482 kts 250°
2026-05-05 15:39 36.22007 122.81612 36059 ft 483 kts 250°
2026-05-05 15:39 36.16637 122.66333 36064 ft 484 kts 250°
2026-05-05 15:40 36.11245 122.51072 36064 ft 485 kts 250°
2026-05-05 15:40 36.05808 122.35754 36069 ft 486 kts 250°
2026-05-05 15:41 36.00386 122.20556 36066 ft 487 kts 251°
2026-05-05 15:41 35.94912 122.05298 35579 ft 481 kts 251°
2026-05-05 15:41 35.92186 121.97718 35093 ft 485 kts 251°
2026-05-05 15:42 35.89436 121.90086 34602 ft 488 kts 251°
2026-05-05 15:42 35.86659 121.82408 34140 ft 489 kts 251°
2026-05-05 15:42 35.83895 121.74790 33612 ft 484 kts 252°
2026-05-05 15:42 35.81190 121.67342 33086 ft 480 kts 251°
2026-05-05 15:43 35.78469 121.59871 32541 ft 477 kts 251°
2026-05-05 15:43 35.75759 121.52446 32044 ft 473 kts 251°
2026-05-05 15:43 35.73058 121.45069 31516 ft 470 kts 251°
2026-05-05 15:43 35.70380 121.37764 31015 ft 467 kts 251°
2026-05-05 15:44 35.67715 121.30511 30540 ft 464 kts 250°
2026-05-05 15:44 35.65053 121.23299 30044 ft 462 kts 250°
2026-05-05 15:44 35.62401 121.16129 29486 ft 458 kts 250°
2026-05-05 15:44 35.59776 121.09046 28924 ft 453 kts 250°
2026-05-05 15:45 35.57175 121.02039 28407 ft 449 kts 250°
2026-05-05 15:45 35.54591 120.95094 27856 ft 445 kts 250°
2026-05-05 15:45 35.52030 120.88228 27326 ft 441 kts 250°
2026-05-05 15:45 35.49502 120.81406 26820 ft 435 kts 252°
2026-05-05 15:46 35.47938 120.74353 26333 ft 425 kts 266°
2026-05-05 15:46 35.47274 120.67178 25836 ft 421 kts 267°
2026-05-05 15:46 35.47146 120.60116 24848 ft 410 kts 284°
2026-05-05 15:46 35.49553 120.53998 23761 ft 395 kts 313°
2026-05-05 15:47 35.54008 120.50354 22643 ft 383 kts 339°
2026-05-05 15:47 35.57292 120.48868 21952 ft 376 kts 338°
2026-05-05 15:47 35.63788 120.45738 20659 ft 373 kts 337°
2026-05-05 15:47 35.68577 120.43399 19619 ft 365 kts 337°
2026-05-05 15:48 35.73208 120.41137 18612 ft 360 kts 337°
2026-05-05 15:48 35.77884 120.38849 17686 ft 350 kts 337°
2026-05-05 15:48 35.82177 120.36750 17317 ft 321 kts 336°
2026-05-05 15:48 35.86316 120.34721 16091 ft 320 kts 336°
2026-05-05 15:49 35.90422 120.32705 14960 ft 316 kts 336°
2026-05-05 15:49 35.94505 120.30698 13917 ft 312 kts 336°
2026-05-05 15:49 35.98578 120.29080 13116 ft 304 kts 348°
2026-05-05 15:49 36.02711 120.28545 12290 ft 292 kts 353°
2026-05-05 15:50 36.06688 120.28068 11415 ft 284 kts 352°
2026-05-05 15:50 36.10721 120.27578 10599 ft 300 kts 353°
2026-05-05 15:50 36.14934 120.27077 10077 ft 302 kts 353°
2026-05-05 15:50 36.19101 120.26587 9771 ft 303 kts 353°
2026-05-05 15:51 36.23315 120.26088 9481 ft 304 kts 353°
2026-05-05 15:51 36.27512 120.25591 8903 ft 298 kts 352°
2026-05-05 15:51 36.31459 120.24430 8265 ft 286 kts 339°
2026-05-05 15:51 36.35200 120.22952 7673 ft 279 kts 339°
2026-05-05 15:52 36.38876 120.21523 7063 ft 275 kts 339°
2026-05-05 15:52 36.42511 120.20104 6387 ft 276 kts 338°
2026-05-05 15:52 36.46241 120.18636 5863 ft 287 kts 338°
2026-05-05 15:52 36.50111 120.17116 5189 ft 291 kts 338°
2026-05-05 15:53 36.52919 120.16021 4790 ft 283 kts 338°
2026-05-05 15:53 36.54742 120.15312 4705 ft 267 kts 338°
2026-05-05 15:53 36.56456 120.14644 4563 ft 256 kts 337°
2026-05-05 15:53 36.58120 120.13992 4439 ft 247 kts 337°
2026-05-05 15:54 36.59780 120.13335 4108 ft 248 kts 336°
2026-05-05 15:54 36.61274 120.12437 3976 ft 235 kts 311°
2026-05-05 15:54 36.62158 120.10846 3739 ft 216 kts 279°
2026-05-05 15:54 36.62190 120.09080 3616 ft 200 kts 247°
2026-05-05 15:55 36.61692 120.07537 3478 ft 183 kts 243°
2026-05-05 15:55 36.61268 120.06158 3306 ft 164 kts 243°
2026-05-05 15:55 36.60869 120.04785 3136 ft 172 kts 243°
2026-05-05 15:55 36.60465 120.03331 3008 ft 186 kts 244°
2026-05-05 15:56 36.60089 120.01885 3004 ft 164 kts 245°
2026-05-05 15:56 36.59758 120.00599 3009 ft 149 kts 240°
2026-05-05 15:56 36.59167 119.99601 3017 ft 146 kts 214°
2026-05-05 15:56 36.58186 119.99174 3020 ft 157 kts 188°
2026-05-05 15:57 36.57083 119.99317 3018 ft 162 kts 174°
2026-05-05 15:57 36.55987 119.99704 3015 ft 164 kts 169°
2026-05-05 15:57 36.54907 120.00144 3006 ft 163 kts 170°
2026-05-05 15:57 36.53823 120.00567 3007 ft 163 kts 170°
2026-05-05 15:58 36.52753 120.00992 3006 ft 163 kts 170°
2026-05-05 15:58 36.51669 120.01420 2954 ft 163 kts 170°
2026-05-05 15:58 36.50591 120.01848 2740 ft 163 kts 170°
2026-05-05 15:58 36.49511 120.02275 2526 ft 161 kts 170°
2026-05-05 15:59 36.48522 120.02675 2330 ft 135 kts 171°
2026-05-05 15:59 36.47673 120.03005 2157 ft 124 kts 172°
2026-05-05 15:59 36.46856 120.03327 1998 ft 122 kts 171°
2026-05-05 15:59 36.46046 120.03645 1835 ft 122 kts 172°
2026-05-05 16:00 36.45510 120.03856 1731 ft 121 kts 171°
2026-05-05 16:00 36.44718 120.04170 1576 ft 119 kts 171°
2026-05-05 16:00 36.43911 120.04486 1406 ft 123 kts 170°
2026-05-05 16:00 36.43103 120.04808 1248 ft 121 kts 169°
2026-05-05 16:01 36.42279 120.05132 1077 ft 125 kts 168°
2026-05-05 16:01 36.41450 120.05461 916 ft 124 kts 167°
2026-05-05 16:01 36.40609 120.05777 754 ft 129 kts 167°
2026-05-05 16:01 36.39754 120.06072 648 ft 126 kts 167°
2026-05-05 16:02 36.38916 120.06425 501 ft 130 kts 160°
2026-05-05 16:02 36.38062 120.06757 307 ft 126 kts 163°
2026-05-05 16:02 36.37208 120.07135 100 ft 133 kts 162°
2026-05-05 16:02 36.36393 120.07439 47 ft 100 kts 164°
2026-05-05 16:03 36.35973 120.07609 46 ft 22 kts 165°
2026-05-05 16:03 36.35865 120.07648 48 ft 20 kts 162°
2026-05-05 16:03 36.35737 120.07700 47 ft 19 kts 162°